Home > Weather > Suzhou > Past weeks

Flag for China Past Weather in Suzhou, Jiangsu, China — Yesterday and Last 2 Weeks

Now
91 °F

Sunny.


Feels Like: 105 °F
Forecast: 84 / 98 °F
Wind: No wind

Location: Shanghai Hongqiao Airport

Current Time: Jul 29, 2016 at 6:23:44 PM

Latest Report: Jul 29, 2016 at 5:30 PM


Visibility: 10 mi

Pressure: 29.71 "Hg

Humidity: 63%

Dew Point: 77 °F

Location of SuzhouLocation

Past Weather in Suzhou — Graph

°F

Suzhou Temperature Yesterday

Maximum temperature yesterday: 102 °F (at 11:00 AM)
Minimum temperature yesterday: 84 °F (at 4:00 PM)
Average temperature yesterday: 92 °F

High & Low Weather Summary for the Past Weeks

 TemperatureHumidityPressure
High104 °F (Jul 26, 1:00 PM)100% (Jul 15, 6:00 AM)29.80 "Hg (Jul 15, 6:00 AM)
Low73 °F (Jul 16, 6:30 AM)33% (Jul 27, 3:30 PM)29.45 "Hg (Jul 15, 3:30 PM)
Average89 °F69%29.68 "Hg
* Reported Jul 14 5:00 PM — Jul 29 5:00 PM, Suzhou, Weather by CustomWeather, © 2016

Note: Actual official high and low records may vary slightly from our data, if they occured in-between our weather recording intervals... More about our weather records

Advertising

Suzhou Weather History for the Previous 24 Hours

Scroll right to see more
 ConditionsComfort  
Time TempWeatherWind HumidityBarometerVisibility
5:00 PM
Fri, Jul 29
90 °FSunny.1 mph67%29.71 "Hg10 mi
4:30 PM86 °FSunny.1 mph79%29.71 "Hg10 mi
4:00 PM84 °FSunny.1 mph84%29.71 "Hg10 mi
3:30 PM82 °FThunderstorms. Passing clouds.1 mph79%29.71 "HgN/A
3:00 PM82 °FThunderstorms. Scattered clouds.3 mph84%29.71 "HgN/A
2:30 PM82 °FThunderstorms. Partly sunny.13 mph84%29.74 "HgN/A
2:00 PM79 °FStrong thunderstorms. Partly sunny.15 mph100%29.74 "Hg2 mi
1:30 PM90 °FStrong thunderstorms. Partly sunny.8 mph59%29.71 "Hg2 mi
1:00 PM99 °FScattered clouds.8 mph53%29.68 "HgN/A
12:30 PM102 °FScattered clouds.3 mph45%29.71 "HgN/A
12:00 PM100 °FPassing clouds.3 mph53%29.71 "HgN/A
11:30 AM99 °FSunny.1 mph57%29.71 "Hg10 mi
11:00 AM99 °FSunny.3 mph57%29.74 "Hg10 mi
10:30 AM99 °FClear.3 mph57%29.74 "Hg4 mi
10:00 AM97 °FClear.3 mph56%29.74 "Hg4 mi
9:30 AM97 °FClear.3 mph60%29.74 "Hg4 mi
9:00 AM95 °FClear.1 mph63%29.74 "Hg4 mi
8:30 AM95 °FClear.6 mph60%29.74 "Hg4 mi
8:00 AM93 °FClear.6 mph71%29.74 "Hg4 mi
7:30 AM91 °FClear.6 mph71%29.74 "Hg4 mi
7:00 AM88 °FFog.3 mph79%29.71 "Hg3 mi
6:30 AM88 °FFog.6 mph79%29.71 "Hg2 mi
6:00 AM86 °FFog.3 mph84%29.71 "Hg2 mi
5:30 AM86 °FFog.6 mph84%29.71 "Hg3 mi
5:00 AM86 °FClear.6 mph84%29.68 "Hg4 mi
4:30 AM86 °FClear.6 mph84%29.68 "Hg4 mi
4:00 AM86 °FClear.6 mph84%29.68 "Hg5 mi
3:30 AM86 °FClear.3 mph79%29.68 "Hg5 mi
3:00 AM86 °FClear.3 mph79%29.68 "Hg5 mi
2:30 AM88 °FClear.6 mph75%29.68 "Hg5 mi
2:00 AM86 °FClear.6 mph79%29.71 "Hg5 mi
1:30 AM88 °FClear.6 mph75%29.71 "Hg5 mi
1:00 AM88 °FClear.6 mph75%29.68 "Hg5 mi
12:30 AM88 °FClear.8 mph75%29.71 "Hg5 mi
12:00 AM88 °FClear.8 mph75%29.71 "Hg5 mi
11:30 PM
Thu, Jul 28
88 °FClear.8 mph75%29.71 "Hg5 mi
11:00 PM88 °FClear.10 mph75%29.71 "Hg4 mi
10:30 PM88 °FClear.10 mph79%29.71 "Hg4 mi
10:00 PM88 °FClear.10 mph75%29.71 "Hg4 mi
9:30 PM90 °FClear.8 mph71%29.71 "Hg10 mi
9:00 PM90 °FClear.8 mph67%29.71 "Hg10 mi
8:30 PM90 °FClear.8 mph67%29.71 "Hg10 mi
8:00 PM90 °FClear.8 mph63%29.68 "Hg10 mi
7:30 PM90 °FClear.8 mph63%29.68 "Hg10 mi
7:00 PM90 °FClear.8 mph63%29.68 "Hg10 mi
6:30 PM90 °FSunny.8 mph59%29.68 "Hg10 mi
6:00 PM90 °FSunny.8 mph63%29.68 "Hg10 mi
Weather by CustomWeather, © 2016

See weather overviewHow to use our weather pages